Weather History for Billings, MT

Change the Weather History Date:

Sunday, November 18, 2012

  Actual Average Record
Temperature  
Mean Temperature 48 °F 35 °F  
Max Temperature 60 °F 44 °F 71 °F (1995)
Min Temperature 36 °F 25 °F -5 °F (1978)
Degree Days  
Heating Degree Days 17 30  
Month to date heating degree days 438 477  
Since 1 July heating degree days 1083 1229  
Cooling Degree Days 0 0  
Month to date cooling degree days 0 0  
Year to date cooling degree days 958 636  
Moisture  
Dew Point 29 °F    
Average Humidity 52    
Maximum Humidity 65    
Minimum Humidity 38    
Precipitation  
Precipitation T in 0.02 in 0.46 in (1977)
Month to date precipitation 0.32 0.39  
Year to date precipitation 6.54 12.92  
Snow  
Snow T in 0.20 in 5.90 in (1978)
Month to date snowfall 4.3 3.5  
Since 1 July snowfall 8.4 8.7  
Since 1 September snowfall 8.4 8.7  
Snow Depth 0.00 in    
Sea Level Pressure  
Sea Level Pressure 29.85 in    
Wind  
Wind Speed 9 mph (West)    
Max Wind Speed 21 mph    
Max Gust Speed 25 mph    
Visibility 10 miles    
Events Rain    
T = Trace of Precipitation, MM = Missing Value Source: NWS Daily Summary

Daily Weather History Graph

Daily Weather History Graph

Search for Another Location

Airport:

Trip Planner

Search our weather history database for the weather conditions in past years. The results will help you decide how hot, cold, wet, or windy it might be!

Date:

Astronomy

Nov. 18, 2012 Rise Set
Actual Time 7:18 AM MST 4:39 PM MST
Civil Twilight 6:46 AM MST 5:12 PM MST
Nautical Twilight 6:09 AM MST 5:48 PM MST
Astronomical Twilight 5:34 AM MST 6:23 PM MST
Moon 11:44 AM MST (11/18) 10:07 PM MST (11/18)
Length of Visible Light 10h 25m
Length of Day
9h 20m
Waxing Crescent, 31% of the Moon is Illuminated
Nov 18
Waxing Crescent
Nov 20
First Quarter
Nov 28
Full
Dec 6
Last Quarter
Dec 13
New

Hourly Weather History & Observations

Time (MST) Temp. Windchill Dew Point Humidity Pressure Visibility Wind Dir Wind Speed Gust Speed Precip Events Conditions
12:53 AM 43.0 °F 37.7 °F 28.9 °F 58% 29.78 in 10.0 mi WSW 9.2 mph - N/A   Clear
1:53 AM 41.0 °F 35.2 °F 28.0 °F 60% 29.75 in 10.0 mi WSW 9.2 mph - N/A   Clear
2:53 AM 41.0 °F 35.2 °F 28.9 °F 62% 29.74 in 10.0 mi West 9.2 mph - N/A   Clear
3:53 AM 41.0 °F 37.1 °F 28.9 °F 62% 29.72 in 10.0 mi WSW 5.8 mph - N/A   Clear
4:53 AM 39.0 °F 34.0 °F 28.0 °F 65% 29.73 in 10.0 mi SW 6.9 mph - N/A   Clear
5:53 AM 39.9 °F 33.9 °F 28.9 °F 65% 29.72 in 10.0 mi SW 9.2 mph - N/A   Clear
6:53 AM 41.0 °F 35.8 °F 30.0 °F 65% 29.71 in 10.0 mi SW 8.1 mph - N/A   Clear
7:53 AM 45.0 °F 38.5 °F 32.0 °F 60% 29.71 in 10.0 mi WSW 13.8 mph - N/A   Partly Cloudy
8:53 AM 48.9 °F - 32.0 °F 52% 29.72 in 10.0 mi WSW 16.1 mph - N/A   Partly Cloudy
9:53 AM 50.0 °F - 32.0 °F 50% 29.74 in 10.0 mi WSW 18.4 mph - N/A   Partly Cloudy
10:53 AM 52.0 °F - 33.1 °F 49% 29.78 in 10.0 mi WSW 15.0 mph - N/A   Partly Cloudy
11:53 AM 55.9 °F - 34.0 °F 44% 29.77 in 10.0 mi SW 12.7 mph - N/A   Partly Cloudy
12:16 PM 59.0 °F - 33.8 °F 39% 29.79 in 10.0 mi WNW 15.0 mph - N/A   Partly Cloudy
12:32 PM 57.2 °F - 33.8 °F 41% 29.79 in 10.0 mi North 9.2 mph - N/A   Partly Cloudy
12:53 PM 57.0 °F - 33.1 °F 40% 29.79 in 10.0 mi NW 5.8 mph - N/A   Partly Cloudy
1:53 PM 55.9 °F - 34.0 °F 44% 29.82 in 10.0 mi NNW 9.2 mph - N/A   Partly Cloudy
2:53 PM 54.0 °F - 30.0 °F 40% 29.85 in 10.0 mi NW 17.3 mph - N/A   Mostly Cloudy
3:53 PM 51.1 °F - 26.1 °F 38% 29.88 in 10.0 mi NNW 12.7 mph 20.7 mph N/A   Scattered Clouds
4:53 PM 46.9 °F - 25.0 °F 42% 29.93 in 10.0 mi North 6.9 mph - N/A   Scattered Clouds
5:53 PM 44.1 °F 39.5 °F 25.0 °F 47% 29.97 in 10.0 mi NNW 8.1 mph - N/A   Mostly Cloudy
6:53 PM 44.1 °F - 25.0 °F 47% 29.99 in 10.0 mi Calm Calm - N/A   Mostly Cloudy
7:53 PM 44.1 °F 41.5 °F 24.1 °F 45% 29.99 in 10.0 mi SSW 4.6 mph - N/A   Overcast
8:41 PM 42.8 °F 38.0 °F 24.8 °F 49% 30.00 in 10.0 mi West 8.1 mph - 0.00 in   Small Hail
8:53 PM 42.1 °F 40.2 °F 27.0 °F 55% 30.02 in 10.0 mi West 3.5 mph - 0.00 in Rain Light Rain
8:56 PM 42.8 °F 41.1 °F 26.6 °F 53% 30.00 in 10.0 mi West 3.5 mph - 0.00 in Rain Light Rain
9:53 PM 39.9 °F - 28.0 °F 63% 30.03 in 10.0 mi Calm Calm - 0.00 in   Mostly Cloudy
10:53 PM 41.0 °F 39.0 °F 21.9 °F 47% 30.04 in 10.0 mi WSW 3.5 mph - N/A   Scattered Clouds
11:53 PM 37.0 °F - 24.1 °F 59% 30.04 in 10.0 mi Calm Calm - 0.00 in   Scattered Clouds